Regional Weather Roundup
Issued by NWS

Home | Current Version | Previous Version | Graphics & Text | Print | Product List | Glossary On
Versions: 1 2 3 4 5 6 7 8 9 10 11 12 13 14 15 16 17 18 19 20 21 22 23 24 25 26 27 28 29 30 31 32 33 34 35 36 37 38 39 40 41 42 43 44 45 46 47 48 49 50
000
ASUS43 KLOT 010621
RWRIL

ILLINOIS REGIONAL WEATHER ROUNDUP
NATIONAL WEATHER SERVICE CHICAGO/ROMEOVILLE IL
100 AM CDT TUE SEP 01 2015

NOTE: "FAIR" INDICATES FEW OR NO CLOUDS BELOW 12,000 FEET WITH NO
SIGNIFICANT WEATHER AND/OR OBSTRUCTIONS TO VISIBILITY.

* THESE STATIONS ARE NOT UNDER NWS QUALITY CONTROL. THEY ALSO MAY NOT
  REPORT WEATHER SUCH AS PRECIPITATION OR FOG.

ILZ001-002-007-009-015-016-024-010700-
NORTHWEST ILLINOIS

CITY           SKY/WX    TMP DP  RH WIND       PRES   REMARKS
MOLINE         FAIR      76  70  82 S7        30.00S
6HR MIN TEMP:  75; 6HR MAX TEMP:  84;

STERLING*      FAIR     N/A N/A N/A CALM      30.00S
SAVANNA*       FAIR      73  70  88 S3        30.01S
$$

ILZ003-004-008-010-011-017-018-010700-
NORTH CENTRAL ILLINOIS

CITY           SKY/WX    TMP DP  RH WIND       PRES   REMARKS
ROCKFORD       FAIR      72  67  84 S5        30.04S
6HR MIN TEMP:  70; 6HR MAX TEMP:  81;

FREEPORT*      FAIR      70  68  93 S6        30.04S
ROCHELLE*      FAIR      70  68  95 S7        30.04S FOG
DE KALB*       FAIR      68  67  94 S6        30.05F FOG
PERU*          FAIR      73  69  89 S6        30.05R
$$

ILZ005-006-012>014-019>023-010700-
NORTHEAST ILLINOIS

CITY           SKY/WX    TMP DP  RH WIND       PRES   REMARKS
CHICAGO-OHARE  FAIR      71  68  90 S5        30.04S
6HR MIN TEMP:  70; 6HR MAX TEMP:  83;

CHICAGO-MIDWAY FAIR      77  68  73 S5        30.04S
6HR MIN TEMP:  77; 6HR MAX TEMP:  83;

AURORA         FAIR      70  67  90 S5        30.05S FOG
6HR MIN TEMP:  69; 6HR MAX TEMP:  82;

LANSING*       FAIR      69  68  96 CALM      30.06S
JOLIET*        MOCLDY    71  70  98 CALM      30.05S FOG
WAUKEGAN       FOG       65  65 100 CALM      30.04S VSB 1/4
6HR MIN TEMP:  65; 6HR MAX TEMP:  69;

DUPAGE AIRPORT MOCLDY    70  67  90 S5        30.04S FOG
6HR MIN TEMP:  69; 6HR MAX TEMP:  81;

KANKAKEE*      MOCLDY    71  69  95 CALM      30.07S
WHEELING       FAIR      69  66  90 CALM      30.05S FOG
6HR MIN TEMP:  68; 6HR MAX TEMP:  78;

MORRIS*        FAIR      72  69  91 CALM      30.04S FOG
ROMEOVILLE*    FAIR      70  68  92 S6        30.05S FOG
NORTHERLY ISL    N/A     77  68  73 S3          N/A
$$

LMZ740>746-010700-
SOUTHERN LAKE MICHIGAN

STATION/POSITION SKY/WX   TEMP    WIND        PRES    VSBY  WAVE
                          AIR SEA DIR/SP/G                  HT/PER
                          (F)     (DEG/KT/KT) (MB)    (MI)  (FT/S)
SOUTHERN BUOY              71 69  150/  8/ 10 1017.0S
WILMETTE HARBOR            66 58  330/  2/  2   N/A           1
HARRISON CRIB              77     200/ 11/ 12   N/A
BURNHAM HARBOR             77     190/  4/  6   N/A
CALUMET HARBOR                    180/  3/  3   N/A
BURNS HARBOR               76     190/  8/  9 1017.9
MICHIGAN CITY              75     120/  7/  8   N/A
MICHIGAN CITY 6N           73 72  180/  4/  6   N/A           0
ST. JOSEPH                 74 72  200/  8/  8   N/A           1
$$

ILZ025>027-034>036-040-047-049-050-058-095>099-010700-
WEST-CENTRAL ILLINOIS

CITY           SKY/WX    TMP DP  RH WIND       PRES   REMARKS
QUINCY         MOCLDY    77  72  84 S6        30.02S
GALESBURG*     FAIR      73  70  91 S5        30.03S
MACOMB*        FAIR      74  71  91 S7        30.04S
JACKSONVILLE*  FAIR      78  73  84 S7        30.04S HX  80
PITTSFIELD*    FAIR      74  71  88 S3        30.05S
$$

ILZ028>032-037-038-041>044-048-051>054-059>061-010700-
CENTRAL ILLINOIS

CITY           SKY/WX    TMP DP  RH WIND       PRES   REMARKS
PONTIAC        MOCLDY    75  73  92 S6        30.06S
BLOOMINGTON    FAIR      74  72  93 S8        30.08R
DECATUR        FAIR      74  69  85 S6        30.07R
PEORIA         FAIR      77  71  82 S6        30.04S
6HR MIN TEMP:  77; 6HR MAX TEMP:  84;

LACON*         FAIR      74  70  87 S5        30.03S
LINCOLN*       FAIR      73  70  88 S3        30.05S
SPRINGFIELD    FAIR      77  71  82 S12       30.05R
6HR MIN TEMP:  77; 6HR MAX TEMP:  84;

TAYLORVILLE    FAIR      72  70  94 S6        30.07R
$$

ILZ033-039-045-046-055>057-062-063-010700-
EAST-CENTRAL ILLINOIS

CITY           SKY/WX    TMP DP  RH WIND       PRES   REMARKS
CHAMPAIGN      FAIR      72  69  90 S6        30.08S
RANTOUL*       FAIR      72  70  92 SE5       30.08R
MATTOON        FAIR      73  67  81 S7        30.08R HAZE
PARIS*         FAIR      69  67  94 CALM      30.09S
$$

ILZ079-100>102-010700-
SOUTHWEST ILLINOIS

CITY           SKY/WX    TMP DP  RH WIND       PRES   REMARKS
ALTON          FAIR      73  70  92 S5        30.06S
BELLEVILLE     FAIR      73  73  99 CALM      30.05S
CAHOKIA*       FAIR      74  71  91 S3        30.06R
SPARTA*        FAIR      74  69  83 S6        30.08S
$$

ILZ064>066-069>071-074>076-080>082-084>086-088>090-092>094-010700-
SOUTH-CENTRAL ILLINOIS

CITY           SKY/WX    TMP DP  RH WIND       PRES   REMARKS
CARBONDALE     FAIR      71  68  90 CALM      30.08R
6HR MIN TEMP:  70; 6HR MAX TEMP:  81;

CAIRO*         FAIR      68  68 100 CALM      30.09R
EFFINGHAM*     FAIR      72  67  84 CALM      30.09S
MARION         FAIR      72  70  94 CALM      30.09S
MT. VERNON     FAIR      70  63  78 CALM      30.09S
SALEM*         FAIR      74  70  85 S3        30.08S
METROPOLIS*    FAIR      68  68 100 CALM      30.09S FOG
$$

ILZ067-068-072-073-078-083-087-091-010700-
SOUTHEAST ILLINOIS

CITY           SKY/WX    TMP DP  RH WIND       PRES   REMARKS
LAWRENCEVILLE  FAIR      70  66  87 CALM      30.09S
FLORA*         FAIR      69  67  92 CALM      30.09S
FAIRFIELD*     FAIR      69  67  95 CALM      30.08S
HARRISBURG*    FAIR      69  68  96 CALM      30.09S
ROBINSON*      FAIR      66  64  94 CALM      30.10S
CARMI*         FAIR      67  66  98 CALM      30.09R FOG
$$

ABBREVIATIONS USED IN REMARKS
   TC - TEMPERATURE IN CELSIUS
  WCI - WIND CHILL INDEX
   HX - HEAT INDEX
  VSB - VISIBILITY
$$




USA.gov is the U.S. government's official web portal to all federal, state and local government web resources and services.